User: anonymous
Location: Brno
(49.2000°N, 16.6330°E)
Time: 00:08:02
(UTC+02:00)
Language:

Cosmos 1459 Rocket - Orbit

View from above orbital plane
View from above orbital plane
View from above satellite
View from above satellite

Ground track
Ground track

The orbit data is extracted from the following two-line orbital elements,

1 14059U 83042B   14112.40310108  .00000094  00000-0  77864-4 0  3131
2 14059 082.9744 196.7238 0041282 260.4057 147.0723 13.78442037557079
Epoch (UTC): 22 April 2014 09:40:27
Eccentricity: 0.0041282
inclination: 82.9744°
perigee height: 939 km
apogee height: 1000 km
right ascension of ascending node: 196.7238°
argument of perigee: 260.4057°
revolutions per day: 13.78442037
mean anomaly at epoch: 147.0723°
orbit number at epoch: 55707

The dashed part of the orbit path shows where the satellite is in the earth's shadow,  

DLR